BEIDOU 5 (C06)

Last updated on Mon Feb 13 2023 00:03:21 GMT+0000 (Coordinated Universal Time)

1 36828U 10036A 23043.65385628 -.00000102 00000+0 00000+0 0 9994 2 36828 54.2092 174.0349 0034982 184.7428 127.2085 1.00281927 45980

Satellite not in orbit

BEIDOU 5 (C06)